Погода Ханты-Мансийск

Хотите узнать прогноз погоды Ханты-Мансийск? Тогда Вам сюда: Погода Ханты-Мансийск

Поиск расширенной информации на нашем сайте:

Полезная информация:

Новости сайта



02.01.2020
Опубликован Долгосрочный прогноз погоды по городам России и ближнего зарубежья на январь 2020 года.
Карты: Прогноз на январь и февраль 2020 года, Сравнение прогнозируемой аномалии приземной температуры воздуха на январь 2020 года по разным моделям.




Погода Ханты-Мансийск - сегодня

Время (UTC), дата Ветер
(°,м/с) 
Видим.   Явления Облачность Т
(°С)
Тd
(°С)
f(%) Тe
(°С)
Pmin
(гПа)
dP
(гПа)
Po
(мм)
O2
(г/м3)
Тmin Tmax R s Состояние
почвы
21 22.09.20 170 (Ю) 10 км    10/0 средняя 
[As trans]
+4.1 +1.2 81 +3  993.6  -3.6  741  294           
00 23.09.20 140 (ЮВ) 10 км    10/0 средняя 
[Ac As]
+4.4 +1.1 79 +3  990.7  -2.9  739  293           
03 23.09.20 130 (ЮВ) 10 км  слаб. дождь  10/3 600 м средняя 
[Sc|Ac As]
+3.9 +1.7 86 +2  989.1  -1.6  738  293  +3.2    0.0    влажная 
06 23.09.20 120 (ЮВ) 5{11}  10 км  слаб. дождь  10/10 300 м 
[Frnb|Ns]
+4.2 +2.7 90 +2  988.1  -1  737  292           
09 23.09.20 130 (ЮВ) 10 км  слаб. дождь  10/10 300 м 
[Frnb|Ns]
+5.6 +3.7 88 +5  989.5  1.4  738  291           
12 23.09.20 070 (В) 10 км  слаб. дождь  10/10 300 м 
[Frnb|Ns]
+5.7 +4.6 93 +7  992.3  2.8  740  291           
15 23.09.20 060 (СВ) 10 км  слаб. дождь  10/10 300 м 
[Frnb|Ns]
+5.4 +4.3 93 +6  994.8  2.5  742  292    +5.8     
18 23.09.20 тихо ()   10 км  {дождь}  10/10 300 м 
[Frnb|Ns]
+5.2 +4.3 94 +5  996.9  2.1  744  293           
21 23.09.20 360 (С) 10 км  в посл. час ливневой дождь  8/8 600 м кучево-дожд. 
[Cb cap]
+5.3 +4.4 94 +6  999.6  2.7  746  294           
00 24.09.20 340 (С) 10 км  {ливн. осадки}  4/0 средняя, верхняя 
[As trans|Ci fib]
+4 +3.1 94 +4  1003.1  3.4  748  297           
03 24.09.20 340 (С) 10 км    8/8 600 м 
[Frnb]
+5.8 +4.6 92 +6  1006.4  3.3  751  295  +3.3    0.3    влажная 
06 24.09.20 340 (С) 10 км    10/3 600 м средняя, верхняя 
[Sc|Ac trans|Ci]
+8.6 +5 78 +7  1009.4  3.1  753  293           
09 24.09.20 340 (С) 4{10}  10 км    3/3 600 м кучево-дожд. 
[Cb cap]
+10.8 +2.7 57 +10  1012.3  2.9  755  292           
12 24.09.20 340 (С) 3{10}  10 км    3/3 600 м кучево-дожд. 
[Cb cap]
+9 +1.4 59 +8  1015.8  3.4  758  295           
15 24.09.20 310 (СЗ) 10 км    ясно 
+5.1 +1.1 75 +6  1018.8  2.9  760  300    +11.2       
18 24.09.20 320 (СЗ) 10 км    ясно 
+4.1 +2.1 87 +4  1020.8  1.9  761  302           
21 24.09.20 310 (СЗ) 10 км    ясно 
+2 +1.2 94 +3  1022.9  763  305           
00 25.09.20 310 (СЗ) 10 км    ясно 
+0.7 +0.1 96 +1  1024.9  764  307           
03 25.09.20 300 (СЗ) 10 км    3/1 1000 м верхняя 
[Sc|Ci fib]
+3.5 +2.8 95 +4  1026.2  1.3  765  304  -0.5        влажная 
06 25.09.20 330 (СЗ) 10 км    10/0 верхняя 
[Ci sp]
+9.9 +4.1 67 +11  1027.1  766  297           
09 25.09.20 280 (З) 10 км    10/3 600 м кучево-дожд., верхняя 
[Cb cap|Ci]
+11.2 +2.2 54 +12  1027.2  0.2  766  296           
12 25.09.20 270 (З) 10 км    10/0 средняя, верхняя 
[As op|Cs]
+10.4 +3.2 61 +12  1027.3  766  297           
15 25.09.20 180 (Ю) 10 км    ясно 
+4.1 +2.9 92 +5  1027.8  0.4  767  304    +12.1       
18 25.09.20 тихо ()   10 км    ясно 
+2.8 +2 94 +3  1028.1  0.3  767  306           
21 25.09.20 170 (Ю) 10 км    6/6 600 м 
[Sc]
+4.6 +3.3 91 +5  1028.2  0.1  767  303           
Время (UTC), дата Ветер
(°,м/с) 
Видим.   Явления Облачность Т
(°С)
Тd
(°С)
f(%) Тe
(°С)
Pmin
(гПа)
dP
(гПа)
Po
(мм)
O2
(г/м3)
Тmin Tmax R s Состояние
почвы

Для получения пояснительной информации подведите курсор к названию столбца.

ПОГОДА Ханты-Мансийск - архив

Всё, что Вы хотите узнать о погоде Ханты-Мансийск - удобно и подробно!

Выберите нужную дату (начиная с 1 января 2019* года) и нажмите кнопку "Найти".
Будут отображены архивные сводки погоды по пункту Ханты-Мансийск, начиная с указанной даты.


Отображать данные в формате CSV (для использования в таблицах Excel)


Внимание! Наш архив погоды предназначен исключительно для личного некоммерческого использования в познавательных целях. Если Вам необходимы официальные справки о состоянии погоды (для производственных, юридических, коммерческих и т.п. целей), обращайтесь в органы Росгидромета.

*Примечание: данная дата относится к архиву по метеостанциям СССР (Россия, СНГ, Балтия).
Архив по метеостанциям Зарубежной Европы и Азии (кроме Китая) хранится 10 дней, по другим регионам земного шара (Китай, Африка, Америка, Австралия, Океания) - 1 день.

Ханты-Мансийск - район местоположения метеостанции


Название, широта, долгота, высота метеостанции:
Ханты-Мансийск 61°ш. 69°д. 46 м над ур. моря [Российская Федерация]

Дополнительная информация

В oтличие oт бoльшинства пoгoдных сайтoв мы публикуем пoдрoбную метеoинфoрмацию в детальнoм прoфессиoнальнoм фoрмате.

Характеристики температуры и влажнoсти вoздуха измеряются на высoте 2 м в тени вдали oт зданий и деревьев.
Скoрoсть ветра измеряется на высoте 10 м (на урoвне рoста челoвека скoрoсть ветра ниже в 1.5-2 раза). Если метеoстанция нахoдится в гoрoде или в лесу, тo скoрoсть ветра занижена на 2-4 м/с пo сравнению с oткрытым местoм. Скoрoсть ветра над акватoриями крупных рек и oзёр, а также на вершинах хoлмoв на 2-5 м/с выше, чем в oбычных услoвиях.
Атмoсфернoе давление в разных тoчках местнoсти мoжет значительнo oтличаться oт давления на метеoстанции, в зависимoсти oт услoвий рельефа (при пoдъёме на 10 м давление пoнижается примернo на 1 мм рт.ст.).